This demonstration page uses our WeatherBlox Daily Observations layout. Learn more.

Left ArrowRight Arrow

38.80484, -77.04692

Hourly Observations for April 6, 2017

Temp ( °F °C ) Dew Point ( °F °C ) Humidity (%) Winds ( mph kmh ) Pressure ( in mb ) Visibility ( mi km ) Precip ( " mm )
12:52 am 00:52 Cloudy 59 15 48 8.9 67 67 E 6 9 29.77 1008 10 16 0.00 0.00
1:52 am 01:52 Cloudy 58 14.4 48 8.9 70 70 ENE 8 13 29.73 1007 10 16 0.00 0.00
2:52 am 02:52 Mostly Cloudy 57 13.9 49 9.4 74 74 E 7 11 29.70 1006 10 16 0.00 0.00
3:38 am 03:38 Cloudy 57 14 50 10 77 77 E 10 17 29.68 1005 10 16 0.00 0.00
3:52 am 03:52 Cloudy 57 13.9 50 10 78 78 E 10 17 29.69 1005 10 16 0.00 0.00
4:11 am 04:11 Cloudy 57 13.9 50 10 78 78 E 8 13 29.68 1005 10 16 0.00 0.00
4:52 am 04:52 Cloudy 57 13.9 51 10.6 81 81 ENE 8 13 29.66 1004 10 16 0.00 0.00
5:21 am 05:21 Cloudy with Light Rain 56 13.3 52 11.1 87 87 ENE 6 9 29.65 1004 5 8 0.00 0.03
5:52 am 05:52 Cloudy 56 13.3 53 11.7 90 90 ENE 9 15 29.62 1003 10 16 0.00 0.03
6:52 am 06:52 Cloudy 56 13.3 53 11.7 90 90 E 12 19 29.52 1000 10 16 0.00 0.00
7:12 am 07:12 Cloudy 55 13 54 12 94 94 ESE 7 11 29.56 1001 10 16 0.00 0.00
7:52 am 07:52 Cloudy 58 14.4 55 12.8 90 90 SE 3 6 29.55 1001 10 16 0.00 0.00
8:35 am 08:35 Cloudy with Nearby Thunderstorms 59 15 56 13.3 90 90 Calm 29.56 1001 10 16 0.00 0.00
8:41 am 08:41 Cloudy with Nearby Thunderstorms 59 15 56 13.3 90 90 Calm 29.56 1001 10 16 0.00 0.03
8:52 am 08:52 Cloudy with Nearby Thunderstorms 58 14.4 56 13.3 93 93 Calm 29.55 1001 4 6 0.00 0.03
9:06 am 09:06 Cloudy with Strong Thunderstorms 57 14 57 14 100 100 Calm 29.56 1001 2 2 0.00 0.00
9:09 am 09:09 Cloudy with Strong Thunderstorms 58 14.4 57 13.9 97 97 Calm 29.56 1001 2 2 0.08 2.03
9:18 am 09:18 Cloudy with Thunderstorms 57 14 57 14 100 100 Calm 29.53 1000 2 3 0.00 0.00
9:22 am 09:22 Cloudy with Thunderstorms 57 14 57 14 100 100 Calm 29.53 1000 2 3 0.00 0.00
9:31 am 09:31 Cloudy with Nearby Thunderstorms 58 14.4 57 13.9 97 97 ENE 7 11 29.50 999 2 3 0.17 4.32
9:47 am 09:47 Cloudy with Nearby Thunderstorms 57 14 57 14 100 100 NE 10 17 29.47 998 3 5 0.20 5.08
9:52 am 09:52 Cloudy with Thunderstorms 58 14.4 58 14.4 100 100 ENE 9 15 29.47 998 3 5 0.21 5.33
10:13 am 10:13 Cloudy with Thunderstorms 58 14.4 58 14.4 100 100 NE 10 17 29.44 997 2 3 0.05 1.27
10:22 am 10:22 Cloudy with Strong Thunderstorms 57 14 57 14 100 100 ENE 10 17 29.44 997 2 2 0.00 0.00
10:30 am 10:30 Cloudy with Nearby Thunderstorms 57 14 57 14 100 100 ENE 10 17 29.44 997 1 2 0.00 0.00
10:39 am 10:39 Cloudy with Rain 58 14.4 58 14.4 100 100 ENE 10 17 29.44 997 2 2 0.19 4.83
10:44 am 10:44 Cloudy with Rain 57 14 57 14 100 100 ENE 10 17 29.41 996 2 2 0.00 0.00
10:52 am 10:52 Cloudy with Heavy Rain 58 14.4 58 14.4 100 100 ENE 12 19 29.41 996 2 2 0.25 6.35
11:04 am 11:04 Cloudy with Light Rain 59 15 57 14 94 94 ENE 14 22 29.38 995 3 4 0.00 0.00
11:16 am 11:16 Cloudy with Nearby Thunderstorms 59 15 59 15 100 100 ENE 9 15 29.38 995 3 4 0.00 0.00
11:22 am 11:22 Cloudy with Nearby Thunderstorms 59 15 59 15 100 100 N 6 9 29.38 995 4 6 0.00 0.00
11:30 am 11:30 Cloudy with Nearby Thunderstorms 59 15 59 15 100 100 NNE 14 22 29.35 994 4 6 0.00 0.00
11:36 am 11:36 Cloudy with Heavy Rain 59 15 59 15 100 100 NE 13 20 29.35 994 3 4 0.00 0.00
11:48 am 11:48 Cloudy with Nearby Thunderstorms 57 14 57 14 100 100 ENE 17 28 29.32 993 1 2 0.00 0.00
11:52 am 11:52 Cloudy with Strong Thunderstorms 58 14.4 58 14.4 100 100 ENE 17 28 29.33 993 1 2 0.24 6.10
11:59 am 11:59 Cloudy with Strong Thunderstorms 58 14.4 58 14.4 100 100 ENE 14 22 29.32 993 3 4 0.21 5.33
12:02 pm 12:02 Cloudy with Thunderstorms 58 14.4 57 13.9 97 97 ENE 17 28 29.32 993 2 2 0.22 5.59
12:07 pm 12:07 Cloudy with Heavy Rain 57 13.9 57 13.9 100 100 ENE 16 26 29.32 993 1 2 0.32 8.13
12:20 pm 12:20 Cloudy with Rain 57 14 57 14 100 100 N 9 15 29.29 992 3 4 0.00 0.00
12:23 pm 12:23 Cloudy with Light Rain 57 13.9 57 13.9 100 100 N 7 11 29.29 992 4 6 0.48 12.19
12:45 pm 12:45 Cloudy with Light Rain 57 13.9 56 13.3 96 96 NNE 8 13 29.29 992 4 6 0.49 12.45
12:52 pm 12:52 Cloudy with Heavy Rain 57 13.9 56 13.3 96 96 N 5 7 29.30 992 3 5 0.51 12.95
12:57 pm 12:57 Cloudy with Heavy Rain 57 13.9 56 13.3 96 96 NNE 7 11 29.29 992 2 3 0.06 1.52
1:00 pm 13:00 Cloudy with Rain 57 14 57 14 100 100 NNE 10 17 29.26 991 3 5 0.00 0.00
1:08 pm 13:08 Cloudy with Light Rain 57 14 57 14 100 100 NE 7 11 29.26 991 4 6 0.00 0.00
1:15 pm 13:15 Cloudy with Light Rain 59 15 58 14.4 96 96 NE 6 9 29.26 991 7 11 0.10 2.54
1:21 pm 13:21 Cloudy with Nearby Thunderstorms 60 15.6 59 15 96 96 ENE 5 7 29.26 991 10 16 0.10 2.54
1:39 pm 13:39 Cloudy with Thunderstorms 60 15.6 59 15 96 96 VRB 3 6 29.26 991 7 11 0.10 2.54
1:42 pm 13:42 Cloudy with Strong Thunderstorms 61 16 57 14 88 88 undefined N/A 29.29 992 2 2 0.00 0.00
1:47 pm 13:47 Cloudy with Thunderstorms 57 14 52 11 82 82 W 32 52 29.29 992 5 8 0.13 3.30
1:58 pm 13:58 Cloudy with Thunderstorms 55 13 50 10 82 82 W 24 39 29.29 992 5 8 0.00 0.00
2:10 pm 14:10 Cloudy with Thunderstorms 54 12 48 9 82 82 W 17 28 29.29 992 9 14 0.00 0.00
2:28 pm 14:28 Cloudy with Light Rain 55 13 48 9 77 77 NW 13 20 29.29 992 10 16 0.00 0.00
2:52 pm 14:52 Mostly Cloudy 55 12.8 50 10 83 83 NNW 14 22 29.26 991 10 16 0.03 0.76
3:34 pm 15:34 Mostly Cloudy with Nearby Thunderstorms 61 16 52 11 72 72 W 14 22 29.29 992 10 16 0.00 0.00
3:52 pm 15:52 Mostly Cloudy with Nearby Thunderstorms 58 14.4 49 9.4 72 72 W 15 24 29.31 993 10 16 0.00 0.03
3:59 pm 15:59 Mostly Cloudy with Light Rain 57 13.9 50 10 78 78 WSW 18 30 29.35 994 6 10 0.00 0.03
4:11 pm 16:11 Cloudy with Rain 56 13.3 51 10.6 84 84 NNW 22 35 29.32 993 3 5 0.03 0.76
4:16 pm 16:16 Mostly Cloudy with Rain 55 13 52 11 88 88 NNW 18 30 29.29 992 6 10 0.00 0.00
4:22 pm 16:22 Mostly Cloudy with Light Rain 55 13 52 11 88 88 NW 15 24 29.29 992 8 13 0.00 0.00
4:52 pm 16:52 Mostly Cloudy 57 13.9 52 11.1 83 83 VRB 7 11 29.32 993 10 16 0.08 2.03
5:52 pm 17:52 Mostly Sunny 59 15 50 10 72 72 W 13 20 29.32 993 10 16 0.00 0.00
6:52 pm 18:52 Mostly Cloudy 59 15 49 9.4 69 69 SW 3 6 29.33 993 10 16 0.00 0.03
7:12 pm 19:12 Mostly Cloudy with Heavy Rain 57 14 50 10 77 77 WSW 9 15 29.35 994 4 6 0.00 0.00
7:28 pm 19:28 Cloudy with Light Rain 55 13 52 11 88 88 WSW 12 19 29.35 994 7 11 0.00 0.00
7:52 pm 19:52 Mostly Cloudy with Light Rain 57 13.9 46 7.8 67 67 WSW 12 19 29.35 994 10 16 0.09 2.29
8:52 pm 20:52 Mostly Cloudy 55 12.8 49 9.4 80 80 WSW 6 9 29.38 995 10 16 0.00 0.03
9:52 pm 21:52 Mostly Cloudy 56 13.3 44 6.7 65 65 W 12 19 29.41 996 10 16 0.00 0.00
10:52 pm 22:52 Partly Cloudy 53 11.7 35 1.7 51 51 W 10 17 29.43 997 10 16 0.00 0.00
11:52 pm 23:52 Mostly Clear 52 11.1 35 1.7 53 53 WSW 8 13 29.45 997 10 16 0.00 0.00

Powered by AerisWeather